Location: Unspecified
(0.0000°N, 0.0000°E)
Time: 16:47:56
(UTC+02:00)

Cosmos 1340 - Visible Passes

Search period start: 20 April 2018 00:00
Search period end: 30 April 2018 00:00
Orbit: 504 x 508 km, 81.2° (Epoch: 19 April)

Date Brightness Start Highest point End Pass type
(mag) Time Alt. Az. Time Alt. Az. Time Alt. Az.
20 Apr 4.1 20:23:54 10° SE 20:26:36 19° E 20:29:17 10° NE visible
20 Apr 6.1 22:00:54 10° WSW 22:01:58 11° W 22:03:01 10° WNW visible
21 Apr 5.8 21:41:36 10° WSW 21:43:54 16° W 21:46:13 10° NW visible
22 Apr 5.3 21:22:54 10° SW 21:25:52 22° W 21:28:49 10° NNW visible
23 Apr 4.7 21:04:26 10° SSW 21:07:49 30° W 21:11:10 10° NNW visible
24 Apr 3.9 20:46:09 10° SSW 20:49:46 44° W 20:53:22 10° NNW visible
25 Apr 3.1 20:27:57 10° SSW 20:31:43 66° W 20:35:27 10° N visible
29 Apr 4.9 07:25:06 10° NNE 07:28:28 31° E 07:31:49 10° SSE visible
